METOP-B

Last updated on Mon Sep 21 2026 00:02:40 GMT+0000 (Coordinated Universal Time)

1 38771U 12049A 26263.56872353 .00000033 00000+0 34795-4 0 9997 2 38771 98.6407 313.1201 0003383 79.2712 280.8846 14.21460021726819
UTC large
Height (km)
Speed (km/s)
/
Latitude / Longitude
Inclination (degrees)
Orbital Period (minutes)
Azimuth
Elevation
Range (km)
Doppler Factor

Next 0 passes for location: London (51.5072 / 0.1276)

No passes found over London.
METOP-B